{"data":{"norad_id":58801,"intl_designator":"2024-012Q","name":"STARLINK-31170","alt_names":[],"object_type":"PAYLOAD","status":"ACTIVE","operator":null,"country":"US","launch_date":"2024-01-15","launch_site_code":"AFETR","launch_vehicle":null,"mission":null,"orbit_class":"UNKNOWN","rcs_meters":null,"size_class":null,"mass_kg":null,"dimensions":null,"purposes":["comms"],"wikipedia_slug":null,"has_3d_model":false,"image_url":null,"decayed_at":null,"tle_current":{"epoch":"2026-05-24T14:13:03.539712Z","epoch_age_seconds":106935,"freshness":"FRESH","line1":"1 58801U 24012Q   26144.59240208  .00001002  00000+0  45926-4 0  9990","line2":"2 58801  43.0041  96.6439 0001296 277.5410  82.5295 15.27573339132841","mean_motion":15.27573339,"eccentricity":0.0001296,"inclination_deg":43.0041,"raan_deg":96.6439,"arg_perigee_deg":277.541,"mean_anomaly_deg":82.5295,"bstar":4.5926e-5,"rev_number":13284,"period_min":94.267159764825,"perigee_km":482.17982923943,"apogee_km":483.9582538454,"semimajor_km":6861.2060415424,"source":"CELESTRAK","updated_at":"2026-05-25T13:38:18.751016Z"}}}